軌道要素
Epoch 2001 Jan. 11.0 TT = JDT 2451920.5
T 2001 Jan. 25.52233 TT MPC
q 1.8346686 (2000.0) P Q
n 0.15016925 Peri. 350.21331 -0.26147920 +0.86753321
a 3.5054898 Node 263.67257 -0.85428694 -0.41203637
e 0.4766299 Incl. 25.19463 -0.44924653 +0.27858958
P 6.56
From 80 observations 2001 June 30-2014 Jan. 7, mean residual 0".6.
|